[[{"header":{"parameterUnit":"m.s-1","parameterCategory":1,"la1":30.2991,"la2":30.254,"lo1":-89.0895,"lo2":-89.0444,"dy":0.0017,"dx":0.0017,"nx":28,"ny":28,"refTime":"2023-09-29T03:00:00:Z","depth":0,"parameterNumber":2,"parameterNumberName":"U-component_of_WINDS"},"data":[0,0,0,0,0,0,0,0,0,0,0,0,0,0,0,0,0,0,0,0,0,0,0,0,0,0,0,0,0,0,0,0,0,0,0,0,0,0,0,0,0,0,0,0,0,0,0,0,0,0,0,0,0,0,0,0,0,0,-4.4084,-4.4084,0,-4.401,-4.4009,-4.4008,-4.3865,-4.3862,-4.3859,-4.3856,-4.3783,-4.3783,-4.3784,0,0,0,0,0,0,0,0,0,0,0,0,0,-4.4106,-4.4107,-4.4084,-4.4084,-4.4083,-4.401,-4.4009,-4.4008,-4.3865,-4.3862,-4.3858,-4.3855,-4.3783,-4.3783,-4.3784,0,0,0,0,0,0,0,0,0,0,0,0,0,-4.4071,-4.4107,-4.4085,-4.4003,-4.3994,-4.401,-4.4009,-4.4008,-4.3866,-4.3862,-4.3857,-4.3854,-4.3782,-4.3783,-4.3784,-4.3875,0,0,-4.3787,-4.3788,0,0,0,0,0,0,0,0,-4.4073,-4.407,-4.4016,-4.4008,-4.3999,-4.3942,-4.3989,-4.3963,-4.3867,-4.3915,-4.3856,-4.3851,-4.3839,-4.3835,-4.3831,-4.3871,-4.3868,-4.3787,-4.3788,-4.3788,-4.3789,0,0,0,0,0,0,0,-4.4076,-4.4073,-4.4055,-4.4015,-4.4005,-4.3971,-4.3961,-4.3984,-4.3902,-4.391,-4.39,-4.3893,-4.3834,-4.383,-4.3828,-4.3867,-4.3787,-4.3788,-4.3789,-4.3789,-4.3979,-4.3983,0,0,0,0,0,0,-4.409,-4.4076,-4.4057,-4.4053,-4.4027,-4.3974,-4.3963,-4.3965,-4.3901,-4.3887,-4.3896,-4.3886,-4.3831,-4.3827,-4.3825,-4.3927,-4.3788,-4.3789,-4.379,-4.3974,-4.398,-4.3985,0,0,0,0,0,0,-4.4091,-4.409,-4.406,-4.4061,-4.4055,-4.3978,-4.3981,-4.3966,-4.3961,-4.389,-4.3875,-4.3907,-4.3827,-4.3823,-4.3863,-4.3922,-4.379,-4.3791,-4.3969,-4.3976,-4.3982,-4.4132,0,0,0,0,0,0,-4.4092,-4.4091,-4.4124,-4.4063,-4.4055,-4.41,-4.3985,-4.3967,-4.3963,-4.3949,-4.3897,-4.3884,-4.3823,-4.3863,-4.3864,-4.3921,-4.3791,-4.3963,-4.3972,-4.398,-4.4121,-4.4143,-4.4161,0,0,0,0,0,-4.4093,-4.4169,-4.4126,-4.4125,-4.4095,-4.4103,-4.4099,-4.4027,-4.3968,-4.4001,-4.3956,-4.3886,-4.3916,-4.3868,-4.3869,-4.3927,-4.3959,-4.397,-4.3979,-4.4112,-4.4138,-4.416,0,0,0,0,0,0,-4.4239,-4.4159,-4.4111,-4.4169,-4.4144,-4.4079,-4.4118,-4.4057,-4.4049,-4.4036,-4.3948,-4.3937,-4.3989,-4.3962,-4.391,-4.4011,-4.3926,-4.3937,-4.4027,-4.4051,-4.4071,-4.4076,-4.3792,0,0,0,0,0,-4.4278,-4.429,-4.4221,-4.4279,-4.4268,-4.4196,-4.4197,-4.4144,-4.4115,-4.4104,-4.4061,-4.4036,-4.404,-4.4044,-4.4044,-4.4117,-4.4104,-4.4157,-4.4177,-4.4194,-4.4204,-4.4241,-4.4264,-4.4017,-4.4017,-4.4017,0,0,-4.4358,-4.4316,-4.433,-4.4307,-4.4281,-4.4297,-4.4188,-4.4209,-4.4221,-4.4107,-4.4142,-4.411,-4.4077,-4.4134,-4.4157,-4.4113,-4.4269,-4.4207,-4.422,-4.4221,-4.4254,-4.4277,-4.4298,-4.4024,-4.4023,-4.4022,0,0,-4.4512,-4.4482,-4.4527,-4.4504,-4.4466,-4.4417,-4.4429,-4.4373,-4.4348,-4.4381,-4.4296,-4.4309,-4.4317,-4.4297,-4.4288,-4.4437,-4.4372,-4.4439,-4.4543,-4.4581,-4.46,-4.4617,-4.4671,-4.4691,-4.445,-4.445,-4.4451,0,-4.4617,-4.4637,-4.4558,-4.4585,-4.4578,-4.4476,-4.4521,-4.4503,-4.4468,-4.4466,-4.4417,-4.4425,-4.4395,-4.4447,-4.4483,-4.4479,-4.449,-4.4445,-4.4604,-4.462,-4.4634,-4.4684,-4.4705,-4.4459,-4.4458,-4.4457,-4.4456,0,-4.4768,-4.4783,-4.4824,-4.4792,-4.479,-4.4826,-4.4754,-4.4762,-4.471,-4.4667,-4.4703,-4.4664,-4.4654,-4.4663,-4.4612,-4.4707,-4.4681,-4.462,-4.4532,-4.4668,-4.4713,-4.4732,-4.4471,-4.4468,-4.4465,-4.4463,0,0,-4.501,-4.4935,-4.4951,-4.4936,-4.4888,-4.4898,-4.4931,-4.4921,-4.4929,-4.4909,-4.4935,-4.4945,-4.4887,-4.4877,-4.4824,-4.4857,-4.4978,-4.4791,-4.4789,-4.4827,-4.5081,-4.5128,-4.5151,-4.4935,-4.4938,-4.4941,-4.5084,0,-4.5154,-4.5204,-4.5135,-4.5201,-4.5214,-4.5118,-4.5146,-4.5121,-4.5082,-4.5089,-4.5047,-4.5055,-4.4979,-4.4972,-4.5001,-4.4957,-4.5028,-4.4946,-4.4959,-4.496,-4.497,-4.5175,-4.5224,-4.5361,-4.5101,-4.5104,-4.5106,0,-4.5328,-4.5315,-4.5383,-4.5331,-4.5334,-4.5361,-4.5346,-4.5354,-4.5323,-4.5293,-4.5283,-4.5219,-4.5248,-4.5165,-4.5205,-4.5151,-4.5152,-4.5132,-4.5135,-4.5133,-4.5041,-4.5179,-4.5403,-4.5424,-4.5134,-4.5132,-4.513,0,-4.5498,-4.5499,-4.5539,-4.5529,-4.5469,-4.5491,-4.5467,-4.5432,-4.5431,-4.5419,-4.5417,-4.541,-4.5405,-4.5401,-4.5338,-4.5283,-4.5386,-4.5297,-4.5362,-4.5364,-4.5388,-4.5387,-4.5615,-4.539,-4.539,-4.5389,-4.5389,0,-4.5666,-4.5711,-4.5615,-4.564,-4.5688,-4.5609,-4.5659,-4.5626,-4.5596,-4.5613,-4.553,-4.5549,-4.5464,-4.5474,-4.5424,-4.5465,-4.5464,-4.5441,-4.5427,-4.5448,-4.5451,-4.5448,-4.5437,-4.5394,-4.5393,-4.5392,-4.5391,0,-4.5864,-4.5801,-4.5839,-4.578,-4.5766,-4.5804,-4.5754,-4.5776,-4.5732,-4.5755,-4.5757,-4.5689,-4.5696,-4.5632,-4.5628,-4.5595,-4.5659,-4.5629,-4.5669,-4.566,-4.5729,-4.5723,-4.5962,-4.599,-4.5748,-4.575,-4.5752,0,-4.5975,-4.6007,-4.5951,-4.5957,-4.5937,-4.5947,-4.5945,-4.587,-4.5871,-4.584,-4.5866,-4.5866,-4.5862,-4.5879,-4.583,-4.5826,-4.5795,-4.5879,-4.5794,-4.5815,-4.5797,-4.5795,-4.5799,-4.5897,-4.59,-4.5903,-4.5905,0,-4.6178,-4.6146,-4.6145,-4.6136,-4.6136,-4.6124,-4.6107,-4.6117,-4.6035,-4.6041,-4.6047,-4.6045,-4.604,-4.6042,-4.6029,-4.6006,-4.5943,-4.5932,-4.5947,-4.5969,-4.5991,-4.598,-4.5718,-4.5927,-4.5924,-4.5923,-4.5922,-4.5921,-4.6335,-4.636,-4.6325,-4.6328,-4.6307,-4.6294,-4.6311,-4.627,-4.6273,-4.6263,-4.6219,-4.6234,-4.6203,-4.6179,-4.6162,-4.6173,-4.6132,-4.6154,-4.616,-4.6166,-4.6179,-4.599,-4.6171,-4.617,-4.6169,-4.6169,-4.6168,0,-4.6534,-4.6507,-4.6511,-4.649,-4.6493,-4.6432,-4.6411,-4.6418,-4.6432,-4.6408,-4.6407,-4.6415,-4.6416,-4.6368,-4.6364,-4.6382,-4.6353,-4.6384,-4.6381,-4.6377,-4.6215,-4.6203,-4.6407,-4.6407,-4.6407,-4.6407,-4.6407,-4.6407,-4.6638,-4.6677,-4.6641,-4.6669,-4.6641,-4.6654,-4.6647,-4.6635,-4.6616,-4.6628,-4.6629,-4.6597,-4.6565,-4.6558,-4.6557,-4.6543,-4.6545,-4.6586,-4.6562,-4.6412,-4.6389,-4.6366,-4.6354,-4.6587,-4.6588,-4.6723,-4.6724,-4.6725]},{"header":{"parameterUnit":"m.s-1","parameterCategory":1,"la1":30.2991,"la2":30.254,"lo1":-89.0895,"lo2":-89.0444,"dy":0.0017,"dx":0.0017,"nx":28,"ny":28,"refTime":"2023-09-29T03:00:00:Z","depth":0,"parameterNumber":3,"parameterNumberName":"V-component_of_WINDS"},"data":[0,0,0,0,0,0,0,0,0,0,0,0,0,0,0,0,0,0,0,0,0,0,0,0,0,0,0,0,0,0,0,0,0,0,0,0,0,0,0,0,0,0,0,0,0,0,0,0,0,0,0,0,0,0,0,0,0,0,-3.2881,-3.2881,0,-3.2885,-3.2885,-3.2885,-3.2845,-3.2844,-3.2842,-3.2841,-3.2844,-3.2845,-3.2846,0,0,0,0,0,0,0,0,0,0,0,0,0,-3.2838,-3.2839,-3.2881,-3.2881,-3.2881,-3.2885,-3.2885,-3.2885,-3.2845,-3.2844,-3.2842,-3.2841,-3.2844,-3.2845,-3.2846,0,0,0,0,0,0,0,0,0,0,0,0,0,-3.2851,-3.2839,-3.2881,-3.2862,-3.286,-3.2885,-3.2885,-3.2885,-3.2845,-3.2843,-3.2842,-3.284,-3.2843,-3.2845,-3.2846,-3.289,0,0,-3.2851,-3.2852,0,0,0,0,0,0,0,0,-3.285,-3.2852,-3.2865,-3.2863,-3.2861,-3.2863,-3.2871,-3.2887,-3.2846,-3.2851,-3.2841,-3.2839,-3.2851,-3.2852,-3.2857,-3.289,-3.289,-3.2852,-3.2853,-3.2853,-3.2854,0,0,0,0,0,0,0,-3.2849,-3.2852,-3.2883,-3.2865,-3.2863,-3.2852,-3.2852,-3.2874,-3.286,-3.285,-3.2847,-3.2848,-3.285,-3.2855,-3.2856,-3.289,-3.2852,-3.2853,-3.2854,-3.2855,-3.2959,-3.2961,0,0,0,0,0,0,-3.2851,-3.2852,-3.2883,-3.2883,-3.2852,-3.2855,-3.2855,-3.2864,-3.286,-3.2858,-3.285,-3.2846,-3.2853,-3.2855,-3.2856,-3.2907,-3.2853,-3.2855,-3.2856,-3.2958,-3.296,-3.2962,0,0,0,0,0,0,-3.285,-3.2854,-3.2882,-3.2866,-3.2869,-3.2857,-3.2868,-3.2865,-3.287,-3.286,-3.2857,-3.2857,-3.2852,-3.2854,-3.2882,-3.2907,-3.2856,-3.2857,-3.2956,-3.2958,-3.2961,-3.3009,0,0,0,0,0,0,-3.2849,-3.2854,-3.2871,-3.2867,-3.287,-3.2909,-3.2869,-3.2866,-3.2873,-3.2869,-3.2866,-3.2864,-3.2851,-3.288,-3.2884,-3.2908,-3.2858,-3.2953,-3.2957,-3.296,-3.3005,-3.3013,-3.302,0,0,0,0,0,-3.2848,-3.2884,-3.2872,-3.2876,-3.2891,-3.291,-3.2912,-3.2896,-3.2875,-3.2891,-3.2885,-3.2864,-3.2903,-3.2883,-3.2887,-3.2912,-3.2952,-3.2956,-3.296,-3.3002,-3.3011,-3.302,0,0,0,0,0,0,-3.289,-3.2883,-3.287,-3.2906,-3.2909,-3.2903,-3.2923,-3.2907,-3.2915,-3.2911,-3.2891,-3.2891,-3.2922,-3.292,-3.2897,-3.2954,-3.2924,-3.2929,-3.2954,-3.2963,-3.2971,-3.297,-3.286,0,0,0,0,0,-3.2904,-3.2921,-3.2913,-3.2946,-3.2948,-3.2936,-3.2943,-3.2931,-3.2933,-3.2934,-3.293,-3.2933,-3.2945,-3.2954,-3.2965,-3.3005,-3.3003,-3.3024,-3.3031,-3.3037,-3.3042,-3.3063,-3.3072,-3.2975,-3.2975,-3.2975,0,0,-3.2932,-3.293,-3.2942,-3.2954,-3.2955,-3.2973,-3.2937,-3.2957,-3.2969,-3.2937,-3.2963,-3.296,-3.2962,-3.2996,-3.301,-3.2995,-3.3068,-3.3042,-3.3047,-3.3049,-3.3068,-3.3077,-3.3085,-3.2978,-3.2977,-3.2977,0,0,-3.2992,-3.2993,-3.302,-3.3022,-3.3024,-3.3016,-3.3022,-3.3019,-3.3016,-3.3042,-3.3019,-3.3033,-3.3056,-3.3058,-3.3062,-3.3124,-3.3105,-3.3128,-3.3166,-3.3186,-3.3194,-3.3201,-3.3223,-3.3231,-3.3133,-3.3133,-3.3133,0,-3.3027,-3.3053,-3.3036,-3.3057,-3.3063,-3.3036,-3.3063,-3.3066,-3.3071,-3.3076,-3.3059,-3.3087,-3.3086,-3.312,-3.3135,-3.3139,-3.3146,-3.3128,-3.3194,-3.3201,-3.3207,-3.3228,-3.3236,-3.3136,-3.3135,-3.3135,-3.3135,0,-3.3095,-3.3113,-3.3135,-3.3142,-3.315,-3.3174,-3.3161,-3.3172,-3.3159,-3.3152,-3.3179,-3.3177,-3.3188,-3.3195,-3.3182,-3.3228,-3.3218,-3.3198,-3.3167,-3.3219,-3.3238,-3.3246,-3.314,-3.3139,-3.3138,-3.3137,0,0,-3.3181,-3.3179,-3.3188,-3.319,-3.3191,-3.3205,-3.3228,-3.3239,-3.3248,-3.3253,-3.3272,-3.3292,-3.3273,-3.3278,-3.3265,-3.3283,-3.3333,-3.3261,-3.3261,-3.3274,-3.3382,-3.3397,-3.3407,-3.332,-3.3322,-3.3323,-3.3382,0,-3.324,-3.328,-3.3266,-3.3306,-3.3323,-3.3297,-3.3317,-3.3319,-3.3314,-3.3327,-3.3321,-3.3335,-3.331,-3.3313,-3.3329,-3.3323,-3.3354,-3.3319,-3.3337,-3.3338,-3.3337,-3.3417,-3.3433,-3.3489,-3.3389,-3.3391,-3.3392,0,-3.3314,-3.3322,-3.3365,-3.3363,-3.3369,-3.3388,-3.3397,-3.3409,-3.3412,-3.3406,-3.3412,-3.3396,-3.3418,-3.3388,-3.3418,-3.3394,-3.3401,-3.3399,-3.3401,-3.3402,-3.3368,-3.342,-3.3506,-3.3515,-3.3403,-3.3402,-3.3401,0,-3.3372,-3.3395,-3.3423,-3.3426,-3.3425,-3.3438,-3.3438,-3.3439,-3.3447,-3.3454,-3.3459,-3.3469,-3.3475,-3.3483,-3.347,-3.3449,-3.3502,-3.347,-3.3498,-3.3498,-3.351,-3.3509,-3.3599,-3.3515,-3.3515,-3.3514,-3.3514,0,-3.3439,-3.3466,-3.345,-3.3467,-3.3496,-3.348,-3.3509,-3.3506,-3.3507,-3.3523,-3.3501,-3.3517,-3.3499,-3.3512,-3.3502,-3.3529,-3.3531,-3.3528,-3.3525,-3.353,-3.353,-3.3534,-3.3529,-3.3517,-3.3516,-3.3516,-3.3515,0,-3.351,-3.35,-3.3529,-3.3526,-3.3525,-3.3547,-3.3544,-3.356,-3.3553,-3.3574,-3.3578,-3.3567,-3.3582,-3.357,-3.3584,-3.3578,-3.3613,-3.3604,-3.3612,-3.361,-3.3639,-3.3636,-3.3733,-3.3745,-3.3654,-3.3654,-3.3655,0,-3.3553,-3.3573,-3.3573,-3.3582,-3.3584,-3.3599,-3.3607,-3.3592,-3.3601,-3.3605,-3.362,-3.3634,-3.3644,-3.3669,-3.3662,-3.3673,-3.3665,-3.3698,-3.3666,-3.3671,-3.3665,-3.3664,-3.3666,-3.3704,-3.3705,-3.3706,-3.3707,0,-3.3631,-3.3625,-3.3638,-3.3649,-3.3659,-3.3667,-3.3673,-3.3681,-3.3666,-3.3677,-3.3692,-3.37,-3.3715,-3.3729,-3.3738,-3.3737,-3.372,-3.3717,-3.3724,-3.3729,-3.3733,-3.3732,-3.363,-3.3715,-3.3714,-3.3713,-3.3713,-3.3713,-3.3689,-3.3706,-3.3708,-3.3723,-3.3726,-3.3732,-3.3747,-3.3743,-3.3755,-3.3767,-3.3757,-3.3776,-3.3778,-3.3788,-3.379,-3.3804,-3.379,-3.38,-3.3803,-3.3805,-3.381,-3.3731,-3.3805,-3.3805,-3.3805,-3.3805,-3.3804,0,-3.3766,-3.3766,-3.378,-3.3789,-3.3801,-3.3784,-3.379,-3.3801,-3.3818,-3.3821,-3.3832,-3.385,-3.3863,-3.3857,-3.3869,-3.3881,-3.3873,-3.3885,-3.3884,-3.3884,-3.3821,-3.3814,-3.3891,-3.3891,-3.3891,-3.3891,-3.3891,-3.3891,-3.3807,-3.3835,-3.383,-3.3859,-3.3859,-3.3877,-3.3882,-3.3888,-3.3891,-3.3912,-3.3923,-3.392,-3.392,-3.3931,-3.3942,-3.394,-3.3946,-3.396,-3.3955,-3.3897,-3.3888,-3.388,-3.3873,-3.3961,-3.3961,-3.4016,-3.4017,-3.4017]}]]